Weather History for San Diego Montgomery, CA

Change the Weather History Date:

Friday, November 15, 2013

  Actual Average Record
Temperature  
Mean Temperature 62 °F -  
Max Temperature 64 °F 67 °F 90 °F (2008)
Min Temperature 57 °F 48 °F 30 °F (1998)
Degree Days  
Heating Degree Days 4    
Growing Degree Days 12 (Base 50)    
Moisture  
Dew Point 55 °F    
Average Humidity 81    
Maximum Humidity 90    
Minimum Humidity 70    
Precipitation  
Precipitation 0.00 in - - ()
Sea Level Pressure  
Sea Level Pressure 29.75 in    
Wind  
Wind Speed 9 mph (South)    
Max Wind Speed 18 mph    
Max Gust Speed 26 mph    
Visibility 8 miles    
Events Rain    
Averages and records for this station are not official NWS values.
T = Trace of Precipitation, MM = Missing Value Source: NWS Daily Summary

Daily Weather History Graph

Daily Weather History Graph

Search for Another Location

Airport:

Trip Planner

Search our weather history database for the weather conditions in past years. The results will help you decide how hot, cold, wet, or windy it might be!

Date:

Astronomy

Nov. 15, 2013 Rise Set
Actual Time 6:19 AM PST 4:47 PM PST
Civil Twilight 5:52 AM PST 5:13 PM PST
Nautical Twilight 5:23 AM PST 5:43 PM PST
Astronomical Twilight 4:53 AM PST 6:12 PM PST
Moon 3:42 PM PST (11/15) 4:25 AM PST (11/15)
Length of Visible Light 11h 20m
Length of Day
10h 27m
Waxing Gibbous, 97% of the Moon is Illuminated
Nov 15
Waxing Gibbous
Nov 17
Full
Nov 25
Last Quarter
Dec 2
New
Dec 9
First Quarter

Hourly Weather History & Observations

Time (PST) Temp. Dew Point Humidity Pressure Visibility Wind Dir Wind Speed Gust Speed Precip Events Conditions
12:51 AM 59.0 °F 55.4 °F 88% 29.79 in 6.0 mi South 6.9 mph - N/A   Overcast
12:53 AM 59.0 °F 55.9 °F 90% 29.78 in 6.0 mi SSE 10.4 mph - N/A   Overcast
1:53 AM 59.0 °F 55.9 °F 90% 29.77 in 5.0 mi South 5.8 mph - N/A   Overcast
2:53 AM 60.1 °F 55.9 °F 86% 29.77 in 8.0 mi South 8.1 mph - N/A   Overcast
3:22 AM 60.8 °F 55.4 °F 82% 29.78 in 9.0 mi South 9.2 mph - N/A   Overcast
3:53 AM 61.0 °F 55.9 °F 83% 29.75 in 8.0 mi SSE 11.5 mph 16.1 mph N/A   Overcast
4:53 AM 60.1 °F 55.9 °F 86% 29.75 in 8.0 mi SSE 5.8 mph - N/A   Overcast
5:53 AM 60.1 °F 55.0 °F 83% 29.75 in 7.0 mi SE 8.1 mph - N/A   Overcast
6:53 AM 61.0 °F 55.9 °F 83% 29.78 in 7.0 mi South 9.2 mph - N/A   Overcast
7:53 AM 61.0 °F 55.0 °F 81% 29.75 in 8.0 mi South 13.8 mph 19.6 mph N/A   Overcast
8:53 AM 62.1 °F 53.1 °F 72% 29.77 in 10.0 mi South 16.1 mph 23.0 mph N/A   Overcast
8:57 AM 62.6 °F 53.6 °F 72% 29.77 in 10.0 mi South 12.7 mph 23.0 mph N/A   Overcast
9:16 AM 62.6 °F 53.6 °F 72% 29.78 in 10.0 mi South 15.0 mph 21.9 mph N/A   Overcast
9:53 AM 63.0 °F 53.1 °F 70% 29.78 in 10.0 mi South 9.2 mph 19.6 mph N/A   Overcast
10:53 AM 63.0 °F 53.1 °F 70% 29.76 in 10.0 mi South 12.7 mph 20.7 mph N/A   Overcast
11:53 AM 63.0 °F 54.0 °F 72% 29.73 in 9.0 mi South 18.4 mph 26.5 mph N/A   Overcast
12:53 PM 64.0 °F 54.0 °F 70% 29.71 in 8.0 mi South 15.0 mph 24.2 mph N/A   Overcast
1:53 PM 63.0 °F 54.0 °F 72% 29.70 in 8.0 mi South 13.8 mph 23.0 mph N/A   Overcast
2:53 PM 63.0 °F 54.0 °F 72% 29.70 in 8.0 mi SSW 12.7 mph - N/A   Overcast
3:53 PM 62.1 °F 54.0 °F 75% 29.70 in 8.0 mi SSW 9.2 mph - N/A   Mostly Cloudy
4:53 PM 61.0 °F 54.0 °F 78% 29.70 in 8.0 mi SSE 8.1 mph - N/A   Overcast
5:18 PM 60.8 °F 55.4 °F 82% 29.72 in 8.0 mi SW 6.9 mph - N/A   Overcast
5:53 PM 61.0 °F 55.0 °F 81% 29.72 in 8.0 mi South 9.2 mph - N/A   Mostly Cloudy
6:41 PM 60.8 °F 55.4 °F 82% 29.74 in 8.0 mi South 9.2 mph - 0.00 in Rain Light Rain
6:50 PM 60.8 °F 57.2 °F 88% 29.74 in 8.0 mi South 5.8 mph - 0.00 in   Overcast
6:53 PM 61.0 °F 57.0 °F 87% 29.73 in 8.0 mi SSW 6.9 mph - 0.00 in   Overcast
7:53 PM 60.1 °F 55.9 °F 86% 29.75 in 8.0 mi SSW 6.9 mph - 0.00 in   Overcast
8:53 PM 59.0 °F 55.0 °F 87% 29.76 in 8.0 mi SSW 5.8 mph - N/A   Overcast
9:00 PM 59.0 °F 55.4 °F 88% 29.77 in 8.0 mi SSW 4.6 mph - N/A   Mostly Cloudy
9:43 PM 60.8 °F 55.4 °F 82% 29.79 in 8.0 mi SSW 4.6 mph - N/A   Overcast
9:50 PM 60.8 °F 55.4 °F 82% 29.79 in 8.0 mi SSW 5.8 mph - N/A   Overcast
9:53 PM 60.1 °F 55.0 °F 83% 29.78 in 8.0 mi South 5.8 mph - N/A   Overcast
10:14 PM 60.8 °F 55.4 °F 82% 29.79 in 8.0 mi SSW 4.6 mph - N/A   Overcast
10:53 PM 59.0 °F 54.0 °F 83% 29.78 in 9.0 mi SSW 5.8 mph - N/A   Mostly Cloudy
11:53 PM 57.9 °F 53.1 °F 84% 29.78 in 9.0 mi Calm Calm - N/A   Mostly Cloudy